Weather History for EGPD - February, 2013

Change the Weather History Date:

Saturday, February 9, 2013

  Actual Average Record
Temperature  
Mean Temperature 34 °F -  
Max Temperature 41 °F 44 °F 53 °F (1998)
Min Temperature 28 °F 33 °F 10 °F (2009)
Degree Days  
Heating Degree Days 30    
Moisture  
Dew Point 32 °F    
Average Humidity 88    
Maximum Humidity 100    
Minimum Humidity 65    
Precipitation  
Precipitation 0.01 in 0.07 in - ()
Sea Level Pressure  
Sea Level Pressure 30.02 in    
Wind  
Wind Speed 3 mph ()    
Max Wind Speed 12 mph    
Max Gust Speed -    
Visibility 6.9 miles    
Events Rain    
Averages and records for this station are not official NWS values.
T = Trace of Precipitation, MM = Missing Value Source: Averaged Metar Reports

Daily Weather History Graph

Daily Weather History Graph

Search for Another Location

Airport or City:

Trip Planner

Search our weather history database for the weather conditions in past years. The results will help you decide how hot, cold, wet, or windy it might be!

Date:

Astronomy

Feb. 09, 2013 Rise Set
Actual Time 7:51 AM GMT 4:55 PM GMT
Civil Twilight 7:10 AM GMT 5:36 PM GMT
Nautical Twilight 6:24 AM GMT 6:22 PM GMT
Astronomical Twilight 5:40 AM GMT 7:06 PM GMT
Moon 6:54 AM GMT (2/9) 4:24 PM GMT (2/9)
Length of Visible Light 10h 26m
Length of Day
9h 04m
Waning Crescent, 1% of the Moon is Illuminated
Feb 9
Waning Crescent
Feb 10
New
Feb 17
First Quarter
Feb 25
Full
Mar 4
Last Quarter

Hourly Weather History & Observations

Time (GMT) Temp. Windchill Dew Point Humidity Pressure Visibility Wind Dir Wind Speed Gust Speed Precip Events Conditions
12:20 AM 32.0 °F - 30.2 °F 93% 30.09 in 6.2 mi Calm Calm - N/A   Unknown
12:50 AM 30.2 °F - 30.2 °F 100% 30.09 in 6.2 mi Calm Calm - N/A   Partly Cloudy
1:20 AM 30.2 °F 26.7 °F 28.4 °F 93% 30.09 in 6.2 mi NW 3.5 mph - N/A   Unknown
1:50 AM 30.2 °F - 28.4 °F 93% 30.09 in 6.2 mi North 2.3 mph - N/A   Partly Cloudy
2:20 AM 28.4 °F - 28.4 °F 100% 30.09 in 6.2 mi Calm Calm - N/A   Partly Cloudy
2:50 AM 29 °F - 28 °F 95% 30.10 in 9 mi North 1.2 mph - -   Mostly Cloudy
2:50 AM 30.2 °F - 30.2 °F 100% 30.09 in 6.2 mi Calm Calm - N/A   Mostly Cloudy
3:20 AM 30.2 °F - 30.2 °F 100% 30.06 in 6.2 mi Calm Calm - N/A   Mostly Cloudy
3:50 AM 32.0 °F - 30.2 °F 93% 30.06 in 6.2 mi Variable 2.3 mph - N/A   Overcast
4:20 AM 32.0 °F - 32.0 °F 100% 30.06 in 6.2 mi Variable 2.3 mph - N/A   Overcast
4:50 AM 32.0 °F - 32.0 °F 100% 30.06 in 6.2 mi Variable 2.3 mph - N/A   Mostly Cloudy
5:20 AM 32.0 °F 28.7 °F 32.0 °F 100% 30.06 in 6.2 mi WSW 3.5 mph - N/A   Mostly Cloudy
5:50 AM 32 °F - 31 °F 92% 30.09 in 11 mi North 3.5 mph - -  
5:50 AM 32.0 °F - 32.0 °F 100% 30.06 in 6.2 mi Variable 2.3 mph - N/A   Mostly Cloudy
6:20 AM 32.0 °F 28.7 °F 32.0 °F 100% 30.06 in 6.2 mi NNW 3.5 mph - N/A   Mostly Cloudy
6:50 AM 32.0 °F 27.5 °F 32.0 °F 100% 30.06 in 6.2 mi WNW 4.6 mph - N/A   Mostly Cloudy
7:20 AM 32.0 °F - 32.0 °F 100% 30.06 in 6.2 mi North 2.3 mph - N/A   Mostly Cloudy
7:50 AM 32.0 °F - 32.0 °F 100% 30.06 in 6.2 mi Calm Calm - N/A   Mostly Cloudy
8:20 AM 32.0 °F - 30.2 °F 93% 30.06 in 6.2 mi West 2.3 mph - N/A   Mostly Cloudy
8:50 AM 33 °F - 31 °F 88% 30.09 in 14 mi Calm Calm - -   Partly Cloudy
8:50 AM 32.0 °F 28.7 °F 32.0 °F 100% 30.06 in 6.2 mi Variable 3.5 mph - N/A   Scattered Clouds
9:20 AM 33.8 °F - 32.0 °F 93% 30.06 in 6.2 mi West 2.3 mph - N/A   Scattered Clouds
9:50 AM 33.8 °F - 32.0 °F 93% 30.06 in 6.2 mi Calm Calm - N/A   Mostly Cloudy
10:20 AM 33.8 °F - 32.0 °F 93% 30.06 in 6.2 mi Calm Calm - N/A   Mostly Cloudy
10:50 AM 37.4 °F - 33.8 °F 87% 30.06 in 6.2 mi Variable 2.3 mph - N/A   Mostly Cloudy
11:20 AM 37.4 °F - 33.8 °F 87% 30.06 in 6.2 mi Variable 2.3 mph - N/A   Scattered Clouds
11:50 AM 39 °F - 31 °F 65% 30.07 in 28 mi NNW 2.3 mph - -   Scattered Clouds
11:50 AM 39.2 °F - 33.8 °F 81% 30.06 in 6.2 mi NNW 2.3 mph - N/A   Scattered Clouds
12:20 PM 41.0 °F - 33.8 °F 76% 30.06 in 6.2 mi Variable 2.3 mph - N/A   Scattered Clouds
12:50 PM 41.0 °F - 33.8 °F 76% 30.04 in 6.2 mi Variable 2.3 mph - N/A   Mostly Cloudy
1:20 PM 41.0 °F 38.0 °F 33.8 °F 76% 30.04 in 6.2 mi South 4.6 mph - N/A   Scattered Clouds
1:50 PM 41.0 °F 38.0 °F 32.0 °F 70% 30.04 in 6.2 mi SE 4.6 mph - N/A   Scattered Clouds
2:20 PM 41.0 °F 39.0 °F 33.8 °F 76% 30.04 in 6.2 mi Variable 3.5 mph - N/A   Scattered Clouds
2:50 PM 40 °F - 33 °F 67% 30.03 in 34 mi East 4.6 mph - -   Mostly Cloudy
2:50 PM 39.2 °F 35.0 °F 33.8 °F 81% 30.01 in 6.2 mi East 5.8 mph - N/A   Mostly Cloudy
3:20 PM 41.0 °F 35.8 °F 32.0 °F 70% 30.01 in 6.2 mi SE 8.1 mph - N/A   Mostly Cloudy
3:50 PM 39.2 °F 35.9 °F 33.8 °F 81% 30.01 in 6.2 mi East 4.6 mph - N/A   Mostly Cloudy
4:20 PM 39.2 °F 34.2 °F 32.0 °F 75% 30.01 in 6.2 mi ESE 6.9 mph - N/A   Scattered Clouds
4:50 PM 39.2 °F 35.9 °F 32.0 °F 75% 30.01 in 6.2 mi ESE 4.6 mph - N/A   Partly Cloudy
5:20 PM 37.4 °F 33.8 °F 33.8 °F 87% 29.98 in 6.2 mi SE 4.6 mph - N/A   Partly Cloudy
5:50 PM 37 °F - 34 °F 84% 30.00 in 25 mi SE 4.6 mph - -   Scattered Clouds
5:50 PM 37.4 °F 32.8 °F 33.8 °F 87% 29.98 in 6.2 mi SE 5.8 mph - N/A   Scattered Clouds
6:20 PM 37.4 °F 31.4 °F 33.8 °F 87% 29.98 in 6.2 mi SSE 8.1 mph - N/A   Mostly Cloudy
6:50 PM 35.6 °F 29.2 °F 33.8 °F 93% 29.98 in 5.6 mi SSE 8.1 mph - N/A Rain Light Rain
7:20 PM 37.4 °F 30.3 °F 35.6 °F 93% 29.98 in 6.2 mi SSE 10.4 mph - N/A Rain Light Rain
7:50 PM 37.4 °F 31.4 °F 33.8 °F 87% 29.95 in 6.2 mi SSE 8.1 mph - N/A Rain Light Rain
8:20 PM 37.4 °F 31.4 °F 33.8 °F 87% 29.95 in 6.2 mi SSE 8.1 mph - N/A   Mostly Cloudy
8:50 PM 37 °F - 33 °F 82% 29.95 in 18 mi SSE 9.2 mph - - Rain Rain
8:50 PM 37.4 °F 30.8 °F 33.8 °F 87% 29.95 in 6.2 mi SE 9.2 mph - N/A   Mostly Cloudy
9:20 PM 37.4 °F 30.8 °F 33.8 °F 87% 29.92 in 6.2 mi SE 9.2 mph - N/A   Mostly Cloudy
9:50 PM 37.4 °F 31.4 °F 32.0 °F 81% 29.92 in 6.2 mi SE 8.1 mph - N/A   Mostly Cloudy
10:20 PM 37.4 °F 32.1 °F 32.0 °F 81% 29.89 in 6.2 mi SE 6.9 mph - N/A   Scattered Clouds
10:50 PM 37.4 °F 31.4 °F 32.0 °F 81% 29.89 in 6.2 mi SSE 8.1 mph - N/A   Scattered Clouds
11:20 PM 37.4 °F 29.8 °F 32.0 °F 81% 29.86 in 6.2 mi SE 11.5 mph - N/A   Scattered Clouds
11:50 PM 35 °F - 31 °F 80% 29.87 in 19 mi SSE 8.1 mph - -   Scattered Clouds
11:50 PM 35.6 °F 28.6 °F 32.0 °F 87% 29.86 in 6.2 mi SSE 9.2 mph - N/A   Scattered Clouds